Theta_e
295 296 296 297 297 296 296 297 299 301 302 302 304 307 309 311 312 311 310 308 305 306 309 310 309 310 309 308 307 308 308 308 308 309 309 308 307 308 311 311 311 311 310 310 312 316 317 315 318 322 321 320 320 319 321 321 322 326 328 326 324 325 324 319 320 326 325 318 318 322 320 322 329 327 324 325 322 322 328 333 334 330 325 326 330 329 326
295 295 296 297 296 296 297 298 300 301 301 302 303 305 310 311 310 311 310 309 307 309 311 312 312 313 310 308 309 309 309 309 309 310 310 310 309 310 311 311 311 311 310 310 311 314 316 316 318 322 322 321 320 319 321 322 324 327 328 327 325 322 323 326 324 322 322 320 323 328 325 324 328 327 324 324 324 326 327 329 334 331 323 327 333 329 326
295 295 296 297 296 296 297 300 301 301 302 303 302 305 310 311 310 310 311 310 309 309 312 314 315 316 314 314 315 314 311 311 309 310 311 310 310 312 312 311 311 312 312 312 311 312 316 317 318 321 323 321 319 319 321 322 324 326 325 324 326 324 324 331 332 325 323 323 326 330 328 325 327 326 323 322 326 329 324 324 336 334 322 324 331 328 325
295 295 296 297 296 296 298 300 301 301 302 302 302 305 309 311 311 311 312 312 310 310 311 312 315 317 315 316 318 315 314 313 309 310 311 310 310 311 311 310 312 314 315 315 312 313 317 318 318 322 323 321 318 318 320 321 323 324 321 320 328 330 323 326 331 330 328 327 325 325 325 324 326 323 321 321 323 326 328 332 337 331 323 324 326 325 324
295 296 297 296 296 297 299 300 301 301 302 303 303 306 309 310 312 313 313 313 312 311 312 312 314 316 314 315 316 314 315 314 311 311 311 309 310 311 311 311 312 313 316 317 314 314 318 320 319 320 321 321 320 318 318 320 321 322 319 318 329 335 326 322 324 323 322 322 321 320 320 320 321 320 319 320 320 323 330 333 327 324 326 327 324 323 323
295 296 297 296 296 297 299 300 301 301 302 303 304 306 310 311 311 311 312 313 313 313 313 312 313 314 313 315 316 315 316 316 313 312 311 310 311 312 313 313 312 310 313 318 315 313 318 322 320 320 321 323 325 323 319 319 319 320 321 319 325 334 328 322 322 321 319 319 318 317 317 316 316 317 318 318 318 320 324 323 320 323 329 329 323 321 319
294 295 296 296 296 298 299 300 301 302 303 304 305 308 310 310 310 310 311 312 313 313 312 311 313 314 314 316 315 314 316 315 313 313 314 313 312 313 314 313 312 310 314 323 321 315 319 322 319 321 322 322 325 325 322 321 318 319 325 323 321 327 326 320 320 320 318 317 316 315 316 315 315 315 316 316 317 317 318 319 319 321 324 322 319 317 314
295 296 296 296 296 298 299 300 301 302 304 304 306 308 309 309 310 311 312 313 312 311 310 311 314 315 314 315 315 314 315 315 314 314 313 313 313 313 314 313 311 311 314 320 320 317 321 322 318 321 324 322 324 324 320 321 321 321 327 326 321 322 322 319 320 320 318 316 314 314 314 314 314 314 314 315 315 315 315 317 317 318 318 315 314 313 311
295 296 296 296 297 298 300 300 301 303 304 304 306 308 309 310 311 311 312 313 313 312 311 311 313 313 313 316 315 315 315 314 314 313 310 311 313 313 314 313 313 314 314 315 315 314 317 316 313 317 320 319 321 321 318 320 325 325 325 325 323 323 322 321 322 321 318 316 315 314 315 315 315 314 313 314 315 314 314 314 314 316 317 315 314 314 311
295 296 296 296 297 298 300 300 301 303 304 304 306 308 308 309 311 312 312 312 313 313 311 311 312 313 317 317 314 313 313 312 313 313 310 310 311 312 312 314 315 317 315 314 313 311 311 312 310 311 314 314 316 317 316 318 324 326 325 323 324 324 324 324 323 321 319 318 317 318 321 321 318 314 313 313 314 313 313 312 311 312 314 315 315 312 309
295 295 296 296 297 299 300 300 301 303 304 305 307 307 307 309 311 312 311 313 314 311 308 311 316 316 316 315 312 313 314 312 313 314 312 310 310 310 310 312 316 317 314 311 311 310 311 311 311 310 310 313 315 316 315 316 318 321 323 324 323 322 323 323 322 322 320 318 317 320 323 322 316 312 312 313 312 312 312 312 310 309 310 310 309 308 306
295 295 296 296 297 299 300 300 301 303 305 306 307 307 308 310 311 311 311 313 315 313 310 313 316 314 312 311 311 313 313 311 311 312 312 312 311 310 308 311 316 315 311 309 311 311 311 311 312 312 310 312 314 314 315 317 316 315 317 322 322 320 320 321 320 319 319 317 318 320 320 316 312 311 312 311 310 310 310 310 309 309 308 307 306 306 305
295 295 296 296 298 299 300 300 300 302 304 306 308 308 309 310 311 311 311 312 315 315 313 312 311 310 311 311 310 311 310 309 309 309 310 311 311 310 308 310 313 311 308 309 309 310 312 315 317 315 311 314 318 316 315 317 316 315 316 317 319 320 320 321 319 317 317 317 319 319 316 313 311 311 312 311 311 311 311 310 309 308 308 307 306 305 304
294 295 296 297 298 299 300 299 300 301 303 305 308 308 309 310 311 312 311 312 313 312 311 311 310 310 311 310 310 312 310 309 310 309 309 310 310 309 308 308 309 308 308 309 309 311 315 318 318 314 313 319 321 318 318 317 316 317 318 316 316 319 321 321 319 316 316 316 316 315 314 312 311 311 311 311 311 311 311 311 309 308 308 307 305 304 304
294 295 296 297 299 299 299 299 300 301 302 304 306 306 308 310 311 311 310 311 312 311 310 309 308 308 308 306 309 313 313 313 312 310 308 309 309 309 308 308 308 308 307 308 311 315 317 316 316 315 316 319 318 315 317 318 316 315 316 315 315 317 321 323 320 316 314 314 314 314 314 314 312 310 309 309 310 310 310 310 309 308 308 308 306 305 305
294 295 297 298 299 299 299 299 299 300 302 304 304 305 308 311 310 310 309 309 311 311 307 306 306 306 306 305 307 309 311 313 314 311 310 311 309 308 309 308 307 308 308 309 313 318 318 315 317 318 317 316 316 314 315 319 319 316 315 316 316 316 318 321 319 316 314 314 314 314 314 313 311 309 308 309 310 310 310 311 311 308 308 309 308 307 306
295 296 297 299 299 299 299 299 299 300 301 304 305 307 310 310 308 308 308 308 310 309 305 306 307 307 308 309 309 308 308 310 311 311 314 315 310 308 308 308 308 309 308 310 315 319 318 315 317 318 316 314 315 315 315 318 321 319 319 320 319 317 318 319 318 316 315 314 313 312 312 310 308 307 308 308 309 310 312 315 312 307 307 308 307 307 307
294 296 297 299 300 299 299 299 299 300 302 305 307 309 309 308 306 307 308 309 309 307 304 306 307 306 307 308 308 307 307 309 309 311 316 316 310 308 308 308 310 310 309 312 319 320 317 314 315 318 316 314 316 317 315 316 318 316 317 318 317 316 316 316 316 314 312 312 311 310 310 308 307 307 307 307 309 312 314 314 310 307 307 307 305 304 305
295 296 298 299 300 299 299 299 299 300 303 305 307 308 307 306 305 306 308 309 309 305 303 306 306 306 306 306 307 308 308 309 310 314 319 316 309 308 310 309 310 311 310 314 318 318 315 314 314 318 318 316 316 316 315 315 317 315 315 316 316 316 315 315 314 313 312 310 310 310 310 307 306 306 307 307 310 313 312 309 307 306 305 304 303 303 303
295 297 299 300 300 299 299 299 300 301 303 305 306 306 306 304 305 306 307 308 307 304 303 305 305 306 306 305 306 307 308 310 310 313 317 315 310 311 314 313 312 312 313 316 316 314 317 317 314 315 317 316 315 314 312 312 313 313 313 313 313 312 313 313 312 312 312 311 310 311 311 307 305 307 307 307 309 310 307 306 306 305 304 303 302 302 301
295 297 299 300 300 299 299 300 301 302 304 305 305 305 305 305 306 307 306 307 306 304 304 304 304 305 305 305 305 306 308 310 309 310 313 312 310 314 317 315 313 312 313 316 315 313 315 316 314 313 314 313 313 314 313 312 310 309 310 311 310 309 311 311 309 308 310 310 309 309 308 305 305 307 307 306 307 306 306 305 305 304 303 302 302 301 301
295 297 300 301 300 299 299 300 302 303 305 306 306 306 306 306 306 306 306 305 304 303 303 304 304 304 305 305 306 306 307 309 309 309 310 309 309 312 313 311 311 311 311 313 315 313 313 315 315 314 313 314 314 313 313 314 312 309 308 309 309 308 308 309 308 306 307 307 306 306 305 304 304 305 305 305 306 306 305 305 304 303 302 302 301 301 301
295 298 300 301 299 299 300 301 303 304 305 306 307 307 306 305 304 305 305 304 304 304 304 304 303 304 305 306 307 307 307 308 309 309 310 310 310 311 310 309 311 311 309 311 313 314 314 314 314 314 313 313 314 313 311 311 311 309 307 307 308 307 306 307 306 306 305 305 305 304 304 304 304 304 305 305 305 305 305 304 303 302 302 301 301 301 300
296 298 300 300 299 299 300 301 302 303 305 306 307 307 306 305 305 305 304 304 305 304 304 304 304 304 305 306 308 308 308 309 310 309 309 310 310 311 310 310 311 311 310 310 310 311 312 311 310 311 312 311 312 313 311 309 308 308 308 308 307 307 307 307 306 306 306 305 304 304 304 303 303 304 304 304 304 304 304 303 303 302 302 301 301 300 300
296 298 300 300 299 299 301 301 301 303 306 307 307 306 306 307 306 306 305 305 305 304 304 304 304 304 305 307 308 309 309 309 310 309 309 309 309 310 310 310 310 310 310 310 309 309 309 310 310 311 310 308 310 311 309 308 308 308 308 309 308 307 306 306 306 305 305 304 303 303 303 303 303 303 303 303 303 303 303 303 302 302 301 301 300 300 299
296 298 300 299 298 300 301 300 301 304 306 307 307 307 307 307 307 307 306 305 304 304 305 305 305 304 306 307 308 309 310 309 309 309 309 309 309 310 310 310 309 309 308 309 309 307 307 308 310 311 309 308 308 309 308 307 308 308 308 308 307 307 306 306 305 304 304 303 303 302 303 303 303 303 303 302 302 302 302 301 301 301 300 300 300 300 300
297 299 299 298 298 300 300 300 302 305 306 307 307 307 307 307 307 307 306 305 305 305 305 305 305 305 306 306 307 309 310 310 310 309 309 309 309 309 309 308 308 308 307 308 308 306 306 307 308 308 307 307 306 307 306 306 307 308 307 306 305 305 305 304 304 304 304 303 302 302 302 302 302 302 302 302 301 301 301 301 301 300 300 300 300 300 300
297 298 297 297 299 300 300 300 303 305 306 306 307 307 307 307 307 307 306 306 306 306 305 304 305 306 307 307 307 308 309 310 310 310 309 308 308 308 308 307 307 307 307 307 307 307 306 307 307 306 306 306 306 306 306 306 307 308 307 305 304 305 304 304 305 304 304 303 303 302 302 302 302 302 302 302 302 302 302 302 302 301 301 300 301 301 301
296 296 296 297 299 300 299 300 303 305 305 306 306 306 307 306 306 306 307 306 305 305 305 306 306 306 306 306 307 307 308 308 309 310 309 308 308 307 307 307 307 307 307 306 306 306 306 306 306 306 306 306 306 307 307 306 306 306 305 304 304 305 304 305 304 304 304 303 303 302 302 302 302 302 302 302 302 302 302 302 301 301 301 301 301 301 300
295 295 296 298 299 300 299 300 303 305 305 306 306 306 306 306 306 306 306 306 305 305 305 307 308 306 305 306 306 306 307 307 308 308 308 308 307 307 307 306 306 306 306 306 305 305 305 305 305 305 306 305 306 308 307 305 304 304 303 303 304 305 305 305 304 304 304 303 303 302 302 302 302 302 302 302 301 301 301 301 300 300 300 300 300 299 298
295 296 297 298 300 300 300 301 303 304 304 306 306 306 306 306 305 305 306 305 305 305 305 305 306 305 305 306 306 305 306 306 306 306 306 306 306 306 306 306 306 305 305 305 305 304 305 304 304 304 305 304 305 307 306 305 304 303 303 303 304 304 304 304 304 303 303 303 303 303 303 302 303 303 302 302 301 300 300 300 299 299 299 299 299 299 298
295 296 297 298 300 300 300 300 301 302 304 306 306 306 307 306 304 305 306 305 305 305 305 305 305 305 305 306 306 305 305 305 305 306 306 305 305 306 306 305 305 305 305 305 304 304 304 304 304 304 305 304 305 306 306 305 304 303 303 303 304 303 303 304 304 304 303 303 303 303 302 302 303 302 302 301 301 300 300 299 299 299 299 299 299 299 299
295 296 297 299 300 300 301 300 300 302 304 305 306 306 306 305 304 305 306 305 305 305 304 304 305 305 305 306 306 305 305 305 305 305 305 305 305 305 305 305 305 305 304 304 304 304 304 303 303 304 304 303 304 306 306 304 303 303 303 303 303 303 303 304 303 303 303 303 303 302 302 302 302 301 301 301 300 300 300 299 299 299 299 299 299 299 299
295 296 298 298 299 300 301 300 301 303 305 306 306 305 305 304 304 306 306 304 304 305 303 304 306 307 306 306 307 306 304 305 305 304 304 304 304 304 305 304 304 304 304 304 304 304 303 303 303 304 304 303 304 305 304 303 302 303 303 303 303 303 303 303 303 303 303 302 302 302 301 301 301 301 301 300 300 300 300 300 300 300 299 299 299 299 299
295 296 298 298 299 300 301 300 302 304 305 305 304 303 304 304 305 306 306 305 304 304 303 303 307 309 308 307 307 306 304 304 305 304 304 304 304 304 303 303 304 304 304 304 303 304 303 303 303 303 303 303 305 304 302 302 302 302 303 302 302 303 303 302 303 303 302 301 301 301 301 301 301 301 301 301 301 301 301 300 300 300 300 300 300 300 299
295 296 298 299 299 300 301 302 305 306 305 303 302 302 304 304 304 305 306 305 305 304 303 303 307 311 310 308 306 305 305 305 304 304 304 304 304 304 304 305 305 304 303 303 303 304 304 303 304 305 305 305 304 302 302 302 302 302 302 302 302 302 302 301 301 301 301 301 301 302 302 302 301 301 301 301 301 301 301 301 300 300 300 300 300 300 299
295 297 298 300 301 302 303 305 306 306 304 301 301 302 304 304 304 305 306 306 305 305 303 305 308 309 308 306 304 304 305 305 305 304 304 304 304 304 304 305 305 305 306 306 305 304 303 303 305 307 306 305 303 302 302 303 303 302 302 302 301 302 302 301 301 301 300 300 301 302 301 301 301 301 301 301 301 301 301 301 301 301 300 300 300 300 299
296 298 301 302 303 304 305 306 306 304 302 301 301 302 303 303 304 305 304 305 306 305 304 306 307 305 305 306 306 305 305 305 304 305 305 304 303 304 304 304 305 307 308 306 304 304 304 305 307 307 304 301 302 303 302 303 303 303 303 302 302 301 301 301 300 301 300 300 301 301 301 301 301 301 301 301 301 301 301 301 300 300 300 300 300 300 299
301 303 305 305 305 305 305 305 304 302 301 301 302 303 303 304 305 305 304 303 305 305 305 306 305 303 305 308 308 306 304 303 305 307 307 305 304 305 305 304 305 307 307 305 304 304 305 305 307 307 303 300 301 302 302 303 303 303 302 302 302 301 301 301 300 300 301 301 301 301 301 301 301 301 301 301 301 301 301 300 300 300 300 300 300 300 300
305 305 304 304 304 304 303 303 303 302 302 303 303 303 303 304 305 305 304 304 305 305 305 305 305 304 305 307 306 306 305 305 306 308 307 305 305 305 305 304 305 307 307 305 303 304 305 305 306 306 304 300 300 301 302 303 303 303 302 302 301 301 301 300 300 301 301 301 301 301 301 301 301 301 301 300 300 300 300 300 300 300 300 300 300 300 300
305 304 302 301 301 301 302 302 303 303 304 304 303 303 304 304 304 303 304 306 307 306 305 305 305 305 305 306 306 306 306 305 304 305 305 304 304 304 304 303 303 305 306 304 302 305 307 305 304 304 303 301 301 302 302 302 302 302 302 302 301 301 301 301 301 301 302 301 301 301 301 301 301 301 300 300 300 300 300 300 300 300 300 300 300 300 300
303 302 301 300 300 302 302 303 303 303 302 302 303 303 304 304 304 303 304 305 306 306 305 306 305 305 305 306 305 304 305 305 303 304 306 304 303 303 305 304 303 304 304 302 303 305 306 304 303 303 302 301 301 302 302 302 302 302 301 301 301 301 301 301 301 301 301 301 301 301 301 301 301 300 300 300 300 300 300 300 300 300 300 300 300 300 300
301 301 301 301 302 303 303 302 302 301 302 304 304 303 303 304 304 304 304 304 305 305 305 305 305 305 305 305 304 304 305 304 302 304 305 304 302 303 305 305 305 304 303 302 303 304 304 304 304 304 302 301 301 301 301 301 301 301 301 301 301 300 301 301 301 300 300 300 300 300 300 300 300 300 300 300 300 300 300 300 300 300 300 300 300 300 300
302 302 303 302 302 302 302 302 300 300 302 303 303 304 304 304 304 306 307 305 304 305 305 304 305 306 305 304 304 304 304 303 303 303 303 302 303 304 305 305 304 302 302 303 304 304 305 305 305 302 301 301 301 301 301 301 301 301 301 300 300 300 300 300 300 300 300 300 300 300 300 300 300 300 300 300 300 300 300 300 300 300 300 300 300 300 300
302 302 302 302 301 300 300 301 300 300 302 303 304 307 310 309 308 310 311 307 304 305 305 304 305 305 304 304 304 304 303 304 304 303 302 302 304 304 304 304 304 303 303 304 304 304 306 306 303 300 300 301 301 301 301 301 300 300 300 300 300 300 300 300 300 300 300 300 300 300 300 299 299 300 300 299 300 300 299 299 299 299 299 300 300 300 300
302 301 301 301 301 300 300 300 301 302 303 302 303 306 308 307 306 307 307 305 304 305 305 304 305 304 303 303 304 303 302 304 304 303 303 305 305 303 302 302 303 304 304 304 304 306 308 305 301 299 301 301 301 301 301 301 300 300 300 300 300 300 300 300 300 300 300 300 300 299 299 299 299 299 299 299 300 300 299 299 299 299 299 299 299 300 300
301 300 299 300 301 301 300 300 302 303 302 301 301 302 303 303 303 303 304 305 305 306 305 304 304 304 303 303 304 303 302 304 304 303 304 306 306 304 303 303 303 304 303 303 305 309 307 302 300 300 301 301 301 301 301 300 301 301 300 300 300 300 300 300 300 299 299 300 299 299 299 299 299 299 299 299 299 299 299 299 299 299 300 300 299 299 300
300 300 300 300 301 301 301 301 302 301 300 301 301 301 301 302 302 303 304 305 305 305 304 303 304 305 304 303 304 304 303 303 303 303 303 304 304 303 304 304 304 304 305 308 311 310 305 301 300 301 301 301 301 301 301 300 301 300 300 300 300 300 300 300 300 299 299 299 299 299 299 299 299 299 299 299 299 299 299 299 299 299 299 300 300 300 300
301 301 300 300 300 300 300 300 301 301 301 301 301 301 301 302 302 303 304 305 305 305 304 303 304 305 304 303 305 306 304 303 304 304 304 304 304 304 304 304 302 303 307 311 311 306 302 300 301 302 301 301 301 301 300 300 300 300 300 300 300 300 300 300 300 299 300 299 299 299 299 299 299 299 299 299 299 299 299 299 299 298 299 299 299 299 299
301 301 300 300 302 303 301 300 301 304 304 302 302 302 302 302 303 304 305 305 304 304 304 303 304 304 304 304 305 306 303 303 304 304 304 304 304 303 302 303 305 307 309 308 305 302 301 301 302 301 301 301 301 301 300 300 300 300 300 300 300 300 300 300 299 300 300 299 299 299 299 299 299 299 299 299 300 299 299 299 299 299 299 299 299 299 300
300 300 300 300 302 304 302 300 302 306 306 304 303 304 304 304 304 305 305 304 304 305 304 303 303 304 305 305 305 304 302 302 303 304 305 305 305 303 304 307 310 310 308 304 302 302 302 302 301 301 301 301 301 301 301 300 300 300 300 300 300 300 300 299 299 299 300 299 299 299 299 299 299 299 299 299 299 299 299 299 299 299 299 299 299 299 299
300 300 300 300 301 301 301 300 301 303 304 304 305 305 305 305 305 305 305 305 305 305 303 302 304 306 307 305 303 302 303 303 303 303 304 305 303 303 307 311 310 306 303 302 302 302 302 302 301 302 302 301 301 301 301 300 300 301 300 300 300 300 300 300 299 299 299 299 299 299 299 299 299 299 299 298 298 298 299 299 299 299 299 299 299 299 299
Wind_Speed
12 10 8 9 11 10 9 8 7 6 5 3 1 1 2 2 3 6 17 15 10 9 2 3 2 2 5 7 9 11 8 5 5 6 6 3 2 2 3 3 3 3 2 3 4 3 4 5 4 4 5 6 4 4 8 12 8 4 2 2 1 2 3 2 2 4 2 3 8 11 9 7 6 3 3 2 1 3 5 5 3 3 2 2 4 2 2
11 9 7 9 11 10 7 6 6 5 5 4 0 2 3 1 1 7 17 18 10 4 2 1 2 4 5 6 8 12 12 7 2 4 4 4 3 2 3 3 3 3 3 3 5 5 4 4 4 4 3 3 6 9 15 17 7 2 2 2 1 2 1 3 2 2 3 2 3 6 7 5 4 3 6 5 3 3 3 2 4 4 1 2 5 2 2
9 7 6 9 10 8 6 5 5 5 4 3 1 2 2 2 1 3 11 16 13 5 2 2 2 3 4 4 6 8 8 3 3 3 3 5 5 2 2 4 3 3 4 5 7 8 5 2 2 4 3 2 6 11 16 17 8 4 6 3 1 3 2 3 5 4 4 3 2 1 2 2 3 4 8 9 7 5 2 3 4 3 1 3 5 3 3
8 5 7 10 9 6 4 4 4 4 4 2 3 4 2 2 1 1 4 10 11 9 7 4 3 3 2 3 5 3 1 1 5 6 4 7 9 3 2 5 5 5 6 5 6 8 7 4 4 4 2 2 4 9 14 14 9 8 12 11 4 4 3 3 6 6 5 4 2 2 2 4 4 6 10 11 8 6 3 4 3 4 4 4 2 6 8
7 5 7 9 8 5 4 4 4 4 4 0 5 5 2 2 1 1 2 4 6 8 9 6 4 4 1 2 4 2 2 2 4 5 3 6 8 5 3 5 4 3 4 4 3 5 6 6 5 4 3 1 2 8 12 13 11 9 10 11 5 5 4 6 8 9 6 6 6 5 8 9 7 7 10 11 10 9 8 5 1 4 6 2 1 8 9
7 5 7 8 7 4 4 4 4 5 4 3 7 5 2 2 1 1 1 2 3 4 6 5 5 6 3 2 2 4 5 3 2 2 3 5 6 4 4 6 5 2 1 4 2 3 5 5 4 2 3 2 3 7 8 9 12 9 6 9 5 6 3 5 8 11 9 8 9 11 13 11 9 11 10 11 13 13 10 5 2 1 5 6 8 10 9
6 4 6 7 5 3 4 5 4 4 1 8 9 4 2 1 2 2 1 1 3 4 5 5 4 6 5 2 1 2 4 4 2 1 3 4 5 4 2 5 7 6 3 5 2 2 3 2 2 1 3 4 2 3 3 5 10 8 5 5 4 4 3 3 7 10 8 6 6 10 13 12 10 12 10 9 11 12 11 9 7 7 8 9 12 13 9
5 4 6 6 4 2 4 5 4 2 3 9 9 4 2 2 1 3 4 4 6 6 6 4 3 4 3 2 2 1 3 2 2 3 4 1 3 4 4 3 7 8 8 8 5 2 5 5 1 1 3 2 1 1 1 1 6 6 3 3 4 3 2 1 4 7 5 4 6 9 12 13 12 12 11 10 10 11 10 8 7 9 10 11 13 12 8
4 4 6 5 3 2 3 4 3 1 6 9 7 4 3 2 2 4 5 4 3 3 3 2 2 1 1 1 1 1 1 1 2 3 5 3 1 2 4 4 6 8 10 9 5 2 5 7 3 2 2 1 2 2 2 3 2 4 3 2 4 3 2 1 3 6 1 0 5 9 12 14 13 11 11 11 8 7 7 6 5 5 8 11 10 7 4
4 5 5 4 2 2 2 4 2 4 9 9 7 5 4 3 2 2 2 3 2 1 2 1 3 3 3 3 2 1 2 2 2 4 7 10 9 6 8 8 6 6 7 7 5 5 5 6 6 5 4 1 3 4 4 5 4 2 3 3 2 3 4 2 3 4 2 3 2 3 5 7 7 5 7 6 4 5 6 7 9 7 4 6 4 3 4
4 4 3 3 1 1 2 3 1 6 10 9 8 8 6 5 2 1 1 1 3 2 2 2 3 2 2 3 2 3 5 5 4 5 2 7 11 12 12 12 8 4 4 5 6 6 6 5 6 7 6 3 6 9 8 8 7 4 4 3 2 4 5 3 2 3 3 4 3 2 4 3 1 3 4 3 5 8 9 8 9 9 7 6 5 5 6
6 4 3 2 1 1 2 3 0 6 10 10 9 9 8 6 2 2 0 1 4 2 1 3 4 3 3 5 4 3 5 5 5 7 5 2 7 11 11 10 7 3 3 5 4 1 2 3 4 5 5 7 11 13 12 10 10 8 5 5 5 5 5 4 2 3 4 3 2 1 3 2 2 1 3 6 9 12 13 11 9 9 9 9 9 8 7
6 4 4 3 2 1 2 2 1 4 9 10 10 10 9 6 2 2 1 1 3 3 2 3 1 6 7 6 5 3 5 7 7 8 7 4 6 10 9 7 6 6 5 5 4 3 3 3 3 3 4 5 8 10 10 9 10 13 10 5 6 6 5 4 3 2 3 1 0 2 3 3 3 1 2 4 5 6 8 9 9 8 6 7 8 8 10
5 4 5 4 3 1 1 2 1 2 6 9 11 13 11 7 3 2 1 0 3 4 2 2 4 7 8 6 5 3 4 5 4 4 5 4 5 8 9 9 8 5 4 4 4 4 4 3 3 2 3 4 4 4 5 6 8 10 10 6 3 6 5 4 3 2 2 3 2 3 4 3 1 1 1 1 1 1 2 4 4 6 5 6 9 8 10
4 5 5 4 3 2 0 1 1 2 5 6 10 13 11 7 4 2 1 1 3 3 3 3 2 4 5 5 6 4 3 4 3 2 3 4 6 8 9 8 5 3 3 4 3 3 3 3 3 2 1 2 2 1 3 3 4 6 7 6 5 4 3 5 3 2 2 4 4 3 3 2 1 1 3 6 4 2 2 3 3 4 5 5 9 8 10
4 6 6 5 4 2 1 1 1 2 3 5 9 10 8 7 4 1 2 2 2 2 7 6 6 8 6 5 8 7 3 1 2 2 2 1 4 9 9 6 4 4 5 5 3 3 4 3 3 3 1 2 3 1 1 1 3 6 7 7 8 7 3 4 5 3 2 4 4 2 2 1 1 0 5 10 6 3 2 3 3 2 5 6 10 8 10
5 7 6 5 4 3 1 1 2 2 3 7 10 8 6 6 4 1 2 3 2 2 7 8 10 12 8 3 4 5 2 1 2 2 1 2 2 9 10 8 7 6 6 4 3 3 4 2 3 3 0 1 3 2 1 2 2 4 6 7 8 7 4 3 4 4 3 3 3 2 1 1 1 2 6 9 6 2 2 1 2 1 3 8 10 8 8
5 7 6 5 4 3 2 2 2 3 4 7 8 7 7 7 4 1 1 2 3 4 11 10 8 10 8 4 4 4 3 3 1 0 0 1 2 5 6 6 6 5 4 3 2 3 3 2 2 4 1 2 2 3 1 2 1 2 3 3 4 4 4 3 4 4 4 4 3 2 1 1 2 5 8 8 4 2 2 1 3 4 8 11 11 10 9
6 7 6 5 4 3 2 2 3 4 5 6 5 6 8 8 4 2 3 2 2 5 14 13 10 12 10 9 10 8 6 6 4 2 2 3 3 5 7 7 5 2 2 3 3 3 3 1 0 3 2 2 2 2 2 2 1 1 1 2 2 2 2 2 2 2 3 3 3 2 2 1 4 6 5 4 1 3 2 3 8 12 14 13 13 14 13
6 8 6 6 4 3 3 4 5 5 5 4 3 5 9 8 5 3 4 4 3 8 13 12 11 12 11 10 10 9 7 7 6 4 4 1 1 4 7 4 2 2 3 3 2 1 2 1 1 1 3 0 0 2 3 2 2 1 1 1 1 1 1 2 2 1 2 3 3 2 3 3 7 4 3 4 2 4 8 13 14 15 16 16 16 15 17
6 8 7 6 4 3 3 5 6 6 5 4 4 7 10 8 4 2 2 4 5 8 11 11 10 11 10 10 9 7 6 8 7 5 5 3 1 3 4 3 2 1 1 2 2 1 1 3 1 1 3 1 1 2 4 3 3 3 2 3 1 1 0 2 1 1 1 2 1 2 3 5 8 5 4 4 7 11 16 19 17 15 17 18 17 16 18
7 9 8 6 4 4 5 6 7 6 5 5 7 9 9 8 6 7 10 11 10 9 11 12 12 11 11 10 9 7 6 8 8 6 6 5 5 6 8 7 4 3 3 4 3 1 1 2 2 2 2 2 2 3 3 3 1 3 3 4 3 2 4 7 5 3 4 4 4 6 9 11 13 15 14 14 16 16 17 19 19 17 16 17 18 19 19
7 9 8 6 4 5 7 7 7 6 5 5 6 7 8 10 12 14 15 15 13 10 9 9 9 8 10 11 11 9 8 8 8 6 5 7 7 7 8 7 4 3 4 4 4 4 3 3 3 3 3 2 3 3 4 3 2 1 3 4 3 3 6 8 7 6 8 10 11 11 12 14 16 18 18 19 20 18 18 20 20 18 16 17 19 20 20
7 9 8 6 5 7 8 8 7 6 7 6 7 8 9 10 11 12 13 13 11 9 7 7 7 7 8 10 11 10 9 9 8 6 4 5 6 5 5 6 6 5 7 8 8 9 7 4 2 3 3 2 2 3 3 3 2 2 4 4 2 3 5 5 5 5 4 6 8 9 12 13 15 17 19 21 21 19 19 20 20 18 17 17 18 20 21
7 9 8 7 7 8 9 7 7 8 9 9 9 8 8 9 10 11 12 11 9 6 4 4 6 8 9 10 12 12 12 11 12 12 8 6 9 9 8 10 10 10 11 11 11 11 9 4 3 4 4 4 4 3 2 3 3 3 3 2 1 3 6 7 6 5 5 6 8 13 16 16 16 17 19 21 22 21 20 20 20 19 19 19 20 21 21
8 9 8 7 8 9 9 7 8 9 11 11 11 10 9 10 10 10 11 12 10 6 3 2 6 10 9 9 11 13 15 15 15 16 16 14 14 13 13 13 13 12 13 14 14 15 12 6 3 3 3 4 6 3 2 3 4 3 3 3 6 7 5 5 7 8 8 9 12 15 17 15 15 18 20 22 23 23 22 21 20 20 20 20 20 19 19
8 9 8 8 9 10 9 8 9 10 12 12 11 10 10 10 9 9 11 11 7 4 1 2 7 13 13 12 10 9 10 11 12 13 16 16 15 14 14 15 16 18 20 20 20 19 14 8 5 5 6 8 9 6 5 6 5 4 3 4 9 10 6 6 9 8 6 7 10 12 10 9 12 19 21 21 22 23 22 20 19 19 19 19 18 17 16
9 9 8 8 10 10 9 9 9 11 14 15 12 10 10 10 9 8 8 8 6 6 6 7 11 14 14 14 11 8 8 8 10 13 15 16 16 16 17 20 22 24 24 21 17 12 9 6 6 6 7 11 10 6 6 7 6 4 3 4 9 11 9 8 7 6 9 13 16 16 16 15 18 22 22 20 19 19 18 18 16 16 16 16 17 17 15
9 9 8 9 11 11 9 9 9 11 14 15 13 11 11 10 9 8 8 9 12 14 14 12 10 9 10 13 14 13 13 13 13 14 14 14 14 17 20 23 24 24 24 23 17 11 8 9 9 8 7 8 7 3 4 5 4 3 5 11 16 16 14 15 16 15 16 20 22 23 25 25 24 25 23 20 18 17 17 17 15 15 15 16 17 17 16
10 9 9 10 12 11 9 9 10 11 12 12 12 12 10 8 7 8 10 13 16 16 13 9 6 6 11 18 21 20 20 20 20 20 20 20 20 21 21 23 24 24 25 23 17 11 8 8 9 9 9 10 7 2 2 4 4 4 10 21 24 22 20 23 26 24 23 25 27 27 28 28 27 25 23 20 17 16 16 15 15 15 15 16 17 17 16
10 10 11 12 13 13 11 10 10 10 10 10 10 9 6 5 6 8 12 15 17 16 13 9 6 6 10 16 20 22 23 24 23 24 23 23 23 22 22 22 24 26 26 24 19 13 8 6 7 9 11 14 11 4 2 6 5 4 12 23 27 27 26 27 29 31 30 30 29 28 27 27 25 22 21 19 16 15 16 16 17 17 17 17 18 17 15
9 11 12 14 14 14 12 11 10 9 8 7 8 7 7 7 7 9 13 17 17 15 12 8 4 2 3 7 14 21 23 23 24 24 23 22 23 24 24 24 24 24 24 21 16 10 9 12 15 13 13 16 14 5 3 5 5 7 17 26 28 29 30 30 30 31 31 30 29 27 25 25 24 23 22 20 18 17 19 19 18 17 16 16 15 14 12
9 11 12 14 15 15 13 11 11 8 6 6 7 9 10 9 8 10 15 17 15 12 10 6 3 1 1 4 9 15 17 19 21 20 18 18 20 21 22 22 21 20 18 15 10 7 10 16 17 14 13 15 13 5 3 5 9 16 25 29 28 29 31 31 32 32 31 29 27 25 25 25 25 23 22 22 20 19 19 18 17 15 14 12 12 10 9
10 11 12 14 15 14 12 11 10 7 5 6 9 11 11 9 9 12 15 15 13 10 7 4 3 2 1 1 4 7 11 14 15 13 11 13 17 19 18 18 17 14 13 14 13 12 12 14 14 12 11 11 10 6 3 6 14 22 26 25 26 29 30 30 31 31 29 25 23 23 25 25 24 23 23 22 20 19 17 16 16 14 12 11 10 8 6
10 11 12 14 15 14 13 12 9 6 5 7 9 13 12 10 10 11 11 11 11 7 3 3 4 3 2 2 2 5 9 11 12 11 12 14 16 16 14 12 10 9 9 12 13 10 8 11 12 9 5 5 5 3 4 9 17 23 24 24 25 27 27 26 28 29 25 22 22 24 25 25 25 24 23 22 20 19 17 16 16 13 11 9 8 6 5
12 12 13 15 16 15 13 11 7 5 6 7 10 13 12 10 9 9 8 8 8 6 4 5 4 3 3 3 2 4 8 9 9 11 13 11 10 11 11 9 7 7 9 9 7 5 5 8 8 4 2 3 3 5 13 21 24 25 26 27 27 27 27 27 28 27 24 22 23 25 25 24 24 23 22 20 19 18 16 15 15 12 10 10 9 7 7
13 14 16 17 17 14 11 8 6 6 6 7 10 13 11 8 8 7 7 7 7 7 8 7 3 3 5 4 3 4 6 6 5 7 7 6 6 9 10 8 5 5 6 5 4 5 8 8 6 3 2 2 7 15 23 28 27 26 27 27 26 27 29 28 26 25 23 22 24 26 25 23 22 21 21 20 18 16 15 15 13 11 10 10 9 8 8
16 17 17 16 13 10 8 6 6 7 8 9 11 11 9 6 5 4 4 5 5 5 7 6 4 5 7 6 4 4 5 3 3 4 4 4 5 5 5 5 4 3 4 3 3 6 9 6 4 3 2 3 11 19 24 26 26 26 25 25 25 26 27 25 23 24 23 21 22 24 24 24 23 22 21 20 18 17 15 13 11 10 11 10 9 8 7
15 14 12 10 9 8 7 7 8 9 10 10 10 8 4 3 3 2 2 2 3 3 4 4 5 9 10 7 4 4 6 5 4 3 2 2 3 1 2 3 3 3 3 1 1 4 4 2 2 3 3 2 8 17 24 26 27 26 24 22 21 22 22 22 22 23 22 21 20 20 20 22 24 22 20 18 18 16 14 13 12 12 11 10 9 9 7
11 10 9 9 9 9 9 10 11 10 9 8 7 5 3 2 1 1 1 2 1 0 2 5 7 11 15 13 7 5 6 7 5 4 3 2 2 3 3 2 3 4 3 0 1 4 4 2 2 3 1 1 8 19 29 30 28 27 24 20 18 19 20 21 22 21 20 19 18 16 17 20 22 20 17 16 16 15 13 12 12 12 12 11 10 8 6
10 10 9 9 10 12 13 12 10 6 5 5 4 3 2 0 1 1 2 2 0 1 3 7 7 6 11 14 11 6 5 7 8 8 6 2 2 4 4 1 3 3 1 1 3 4 4 2 3 1 4 7 15 24 30 30 28 25 22 18 17 19 20 19 19 18 17 17 17 16 17 18 18 16 14 14 15 15 14 12 11 12 12 10 8 7 6
10 11 11 12 14 14 12 8 5 3 4 4 2 1 0 0 1 1 1 1 1 1 2 6 8 9 11 13 11 7 6 7 7 6 4 1 2 4 2 1 1 2 1 4 6 4 3 3 3 2 7 14 21 24 26 27 25 24 22 20 19 19 19 19 20 19 18 17 17 17 17 16 15 14 14 14 15 15 14 12 11 11 10 8 7 7 6
12 13 13 13 12 9 5 2 2 2 2 2 2 1 0 1 0 0 0 1 1 3 5 9 13 14 12 10 9 8 8 6 5 4 3 2 2 3 3 2 2 2 4 6 5 3 1 3 3 6 14 20 23 23 23 24 25 24 22 21 20 21 21 22 22 19 16 15 16 17 16 15 15 14 13 12 13 14 12 10 9 9 9 7 6 6 6
12 12 11 8 5 4 2 1 2 2 1 1 1 3 2 1 1 1 1 1 2 4 8 13 15 13 7 5 6 7 6 5 4 4 3 2 2 2 2 1 1 3 5 4 2 1 2 2 4 13 21 25 24 23 23 23 23 22 20 18 18 20 21 21 21 19 17 15 16 16 15 15 14 13 11 11 12 12 11 10 10 9 8 6 5 5 5
9 7 5 3 2 2 1 1 2 1 0 1 2 3 3 4 4 3 3 5 6 9 13 17 19 15 9 5 5 4 3 4 4 2 1 2 3 2 1 2 1 2 3 2 2 3 2 2 6 18 26 27 26 25 24 22 22 21 20 18 18 19 20 21 21 20 18 17 16 15 13 13 14 14 13 12 12 12 11 11 11 9 7 6 7 7 6
6 5 4 2 1 1 1 1 0 0 1 3 4 4 5 7 7 5 6 9 12 16 19 21 20 16 10 5 4 3 3 4 3 1 1 3 2 0 2 2 2 2 2 1 2 3 3 4 11 23 30 31 29 26 23 23 23 22 21 21 21 21 21 20 19 18 17 17 15 13 12 13 14 14 13 13 13 12 11 10 10 10 8 7 8 7 5
6 4 3 2 0 1 0 1 3 3 3 4 6 8 11 12 9 6 8 13 16 20 22 21 19 15 9 6 4 3 2 3 3 2 2 3 2 1 1 2 1 1 2 3 4 4 4 8 19 29 34 34 30 26 25 24 22 20 21 21 21 19 18 17 16 16 16 15 14 13 13 13 13 13 12 11 10 9 8 7 7 9 9 9 8 6 4
5 3 1 1 1 2 2 2 3 4 5 6 8 9 11 10 7 6 10 15 19 22 21 19 15 11 6 4 4 2 2 4 3 1 1 3 2 1 2 1 1 2 2 4 5 4 6 17 29 35 36 35 32 28 27 26 22 20 21 22 20 18 17 16 16 16 16 15 14 14 13 12 11 11 10 9 9 9 8 7 5 6 9 10 9 6 5
4 3 1 1 1 3 4 3 2 5 8 9 10 10 11 12 11 10 13 18 21 23 22 18 13 7 2 2 3 2 2 2 2 0 2 3 1 1 1 1 2 3 2 3 3 7 18 30 37 37 37 36 33 28 28 28 25 22 21 21 20 19 19 19 19 18 16 14 14 13 12 11 11 10 9 10 11 10 9 7 6 4 6 9 8 6 4
3 1 2 2 1 2 2 1 1 4 6 5 7 11 12 12 12 13 16 21 25 24 18 12 9 5 2 2 3 2 1 1 2 2 2 1 1 2 2 2 3 4 4 4 7 17 29 37 39 38 38 37 32 28 28 29 27 23 22 22 20 18 18 20 20 17 14 13 14 14 13 12 11 9 9 10 11 9 8 7 5 5 6 6 7 6 5
1 2 3 3 3 4 4 3 4 4 2 4 10 14 15 16 17 18 21 25 25 19 10 5 4 4 3 2 2 1 1 1 2 2 1 2 2 3 3 3 5 5 5 7 17 29 37 39 40 41 40 36 31 27 28 29 28 26 24 22 20 18 18 19 18 16 14 13 15 15 13 10 9 8 7 7 7 8 7 7 8 8 7 5 4 5 7
1 2 4 4 6 8 7 6 8 7 1 9 15 19 21 21 19 20 23 25 20 12 6 4 4 4 2 1 2 2 2 1 2 1 2 2 2 3 4 6 7 7 9 15 25 34 38 39 41 41 39 35 30 29 30 30 29 27 25 23 20 19 18 17 16 15 13 12 13 13 12 9 7 5 4 5 6 8 7 8 9 9 7 6 6 6 7
Wind_Direction
321 314 316 323 318 317 319 326 341 357 10 17 197 144 65 28 23 133 157 163 159 149 137 311 252 260 280 280 287 286 283 277 292 337 3 6 34 47 27 35 44 31 12 338 352 37 69 58 76 109 92 61 24 359 61 71 58 50 61 316 331 71 95 142 252 294 312 77 62 47 38 54 68 34 1 26 102 147 146 173 174 99 61 65 89 95 192
317 311 318 323 315 311 318 335 347 350 3 14 206 138 84 72 59 145 162 173 182 168 136 219 247 273 275 280 283 272 260 249 279 1 357 357 15 55 35 25 35 22 9 15 17 30 64 70 68 90 105 61 16 31 68 76 62 36 63 268 270 52 80 120 94 349 339 351 16 18 15 35 60 2 339 344 0 55 96 114 88 72 20 126 118 124 168
314 316 328 321 309 308 323 344 345 338 350 9 127 145 96 98 138 165 171 183 198 212 201 194 237 272 287 283 267 265 262 227 97 50 3 13 24 73 48 13 41 48 34 40 29 34 62 75 41 58 67 61 20 26 60 76 73 52 45 24 107 97 73 115 128 162 198 203 206 257 315 13 52 5 350 354 4 20 81 113 77 87 137 87 104 143 134
317 329 331 316 306 311 332 344 341 336 343 15 149 157 123 88 135 184 180 188 202 228 252 256 243 247 274 276 260 266 298 27 49 41 33 23 20 38 51 21 34 39 39 52 37 37 56 59 54 54 39 65 22 20 51 65 58 54 42 26 46 97 50 63 108 129 166 168 177 205 134 79 50 8 4 4 359 6 80 105 95 140 130 51 69 137 121
317 327 325 312 306 313 333 342 338 326 324 269 160 165 143 97 162 153 148 197 213 239 258 251 226 236 259 275 272 316 0 332 14 29 39 25 19 20 27 30 39 34 46 69 49 44 54 49 60 60 25 62 18 25 47 46 35 54 43 15 35 103 38 25 72 82 93 100 86 76 85 82 71 47 25 14 15 27 56 75 118 144 114 66 139 119 108
309 315 317 307 303 312 333 338 335 325 314 169 158 166 155 124 282 270 137 194 201 220 251 241 227 247 255 241 289 357 24 20 358 349 12 26 30 38 14 4 1 334 87 110 88 57 55 31 37 60 19 10 357 12 29 32 34 57 49 18 54 111 49 17 72 78 71 81 88 85 85 79 66 61 45 27 33 43 52 45 342 114 125 150 144 114 101
302 310 316 304 296 316 337 332 332 333 264 162 152 155 162 108 328 324 4 270 240 243 269 268 247 248 243 243 321 29 45 24 327 329 38 15 11 63 69 348 359 8 68 113 86 39 93 52 355 78 37 21 25 21 3 14 34 53 58 25 44 97 54 41 90 85 59 55 87 94 92 86 63 53 48 42 46 49 52 48 35 55 91 116 113 101 93
305 314 313 301 297 324 338 339 341 340 167 160 151 139 133 119 352 336 337 297 267 271 280 268 241 254 255 270 309 43 70 37 336 21 63 22 338 51 78 36 36 42 57 81 67 41 130 127 84 137 94 38 47 80 265 324 26 42 63 13 6 56 105 222 95 85 46 32 74 87 90 87 69 46 33 36 44 41 38 38 37 57 82 91 92 94 90
318 319 309 294 300 328 340 350 351 127 157 164 163 135 122 160 263 323 327 300 280 280 273 212 169 250 288 225 257 351 28 211 196 37 43 70 90 119 128 92 59 50 51 65 68 55 108 108 84 98 123 156 168 150 183 172 78 40 65 28 6 60 130 223 74 86 99 180 102 100 94 83 67 42 19 23 42 48 39 31 24 54 107 108 95 92 101
304 314 306 282 289 329 343 353 0 148 157 173 175 146 156 212 271 311 283 277 291 262 262 231 151 200 221 191 186 45 0 323 125 77 23 28 47 91 133 118 75 59 53 43 22 7 34 58 48 28 7 299 163 148 145 124 99 97 105 71 40 100 121 112 86 99 162 222 193 101 83 72 55 14 348 1 54 85 62 40 29 35 86 113 98 91 113
296 300 288 267 286 321 330 348 6 160 167 181 168 153 185 228 296 347 137 284 288 246 232 212 158 190 211 158 120 69 55 36 76 114 53 19 44 70 102 107 94 85 62 34 19 2 4 29 40 27 14 39 109 110 99 72 60 92 131 101 72 102 106 105 102 112 145 201 252 357 50 75 72 308 325 22 90 89 73 52 39 46 63 81 90 94 95
301 275 240 232 239 281 319 348 321 176 181 185 159 154 196 226 281 324 64 266 283 302 322 221 185 161 144 124 104 80 81 72 82 103 113 56 34 48 73 96 103 107 79 63 58 7 358 33 30 18 29 64 84 82 74 55 35 37 74 117 129 117 106 109 103 93 120 164 220 72 83 130 170 300 29 82 97 88 80 66 48 59 83 93 94 99 104
305 246 206 200 188 212 328 336 308 193 193 188 165 167 201 214 220 297 294 215 272 304 317 288 157 127 130 116 99 102 113 122 121 98 91 84 43 47 62 82 99 108 100 88 80 80 75 38 9 5 25 45 61 54 46 45 33 23 29 68 132 142 134 116 94 88 111 115 0 114 120 132 133 93 38 88 99 84 77 62 37 39 80 108 109 115 121
308 218 188 182 177 153 343 327 329 210 198 189 180 186 199 201 202 275 336 79 271 269 264 324 36 93 109 96 82 72 70 98 114 83 77 92 77 76 88 96 99 98 90 84 62 59 75 50 23 25 6 13 34 22 13 40 51 36 20 15 90 140 144 118 81 67 112 103 65 86 110 124 122 53 347 358 333 263 99 83 46 19 40 111 127 128 133
293 200 181 174 173 150 109 339 357 207 194 183 186 192 194 196 210 256 330 333 278 306 3 13 38 93 99 89 83 74 35 30 33 44 98 120 103 101 109 108 104 94 73 76 66 56 77 89 82 80 31 50 96 13 340 12 42 35 17 9 39 88 142 144 117 51 79 109 106 109 135 174 174 142 323 330 320 231 155 96 97 9 17 117 145 146 150
253 193 176 171 168 152 151 34 94 182 181 165 177 187 191 192 193 217 324 323 284 347 10 25 67 74 69 75 83 89 99 83 74 54 344 325 98 113 120 110 103 129 111 79 60 72 80 94 124 128 151 169 163 163 15 20 349 342 351 17 40 44 49 99 101 93 113 118 117 131 174 192 146 304 318 332 332 217 188 89 114 345 7 113 139 143 156
231 189 174 168 161 149 129 84 130 168 148 150 164 179 183 170 154 137 345 337 274 317 11 30 65 68 57 46 64 69 70 80 107 111 306 276 129 119 125 117 98 107 106 68 33 63 78 87 101 97 127 208 135 129 120 88 47 328 333 5 29 30 24 54 91 115 123 109 105 99 109 115 43 333 315 326 330 218 190 124 159 313 45 114 123 118 137
218 186 172 164 157 149 118 100 135 145 134 148 163 171 162 146 130 113 18 333 272 344 23 35 69 76 74 83 65 48 45 43 34 172 90 328 53 101 131 127 91 73 80 84 71 73 80 84 102 111 175 298 77 111 118 96 108 289 315 10 37 33 29 52 94 106 95 97 111 99 73 103 334 320 315 319 316 187 169 192 167 116 100 110 107 100 115
203 182 170 162 157 141 107 112 127 129 137 150 156 155 152 145 133 108 42 354 266 44 45 54 79 82 84 91 83 79 82 74 65 85 76 3 10 88 103 96 80 56 47 72 85 89 91 78 90 115 111 345 19 108 104 97 152 245 356 57 59 38 24 35 68 102 106 104 102 103 119 23 328 311 316 342 326 193 154 124 130 116 107 107 100 98 107
194 180 169 165 159 127 103 121 122 118 127 128 117 137 144 133 109 58 20 17 70 69 57 59 73 76 74 76 78 87 95 81 71 96 131 183 306 96 92 74 59 47 41 63 83 82 107 140 282 81 108 106 135 119 103 81 80 70 70 87 93 113 95 70 55 66 113 101 79 122 158 340 340 316 300 2 29 144 118 107 113 113 111 110 104 101 110
193 180 170 166 158 125 116 121 118 113 109 101 110 129 127 110 69 8 34 74 83 76 71 70 73 75 70 60 60 76 95 90 87 111 136 133 63 98 132 182 201 135 93 123 128 70 129 157 190 67 104 112 41 109 127 111 49 16 45 107 114 294 243 140 176 304 79 106 90 113 104 25 28 69 101 68 94 124 120 110 107 109 113 114 109 109 117
190 181 174 168 153 128 126 124 120 114 103 108 127 127 113 99 99 111 113 108 102 96 91 85 77 74 71 63 64 80 94 90 90 105 124 113 89 108 139 157 154 149 163 142 122 130 165 140 141 114 100 86 67 90 111 117 80 3 14 46 46 31 83 101 94 55 71 92 95 93 83 65 68 85 96 99 109 122 124 117 111 112 115 116 115 118 123
187 182 178 169 153 138 134 130 124 113 103 119 128 113 100 106 118 121 118 111 105 102 101 99 95 88 79 74 79 92 96 88 85 94 121 124 105 102 128 140 128 142 169 149 137 155 150 133 140 129 105 101 112 91 61 69 100 55 37 63 81 84 87 88 91 99 92 81 81 88 85 77 81 90 98 105 112 119 121 117 114 115 119 119 120 124 126
186 182 180 171 157 147 140 135 127 109 96 102 106 99 98 107 121 133 132 119 108 104 100 96 96 96 89 81 86 98 102 97 93 84 98 156 148 116 123 149 147 138 132 127 127 128 122 118 119 111 99 88 102 95 72 79 123 122 94 97 74 27 55 77 108 138 115 82 86 94 89 86 88 92 99 105 110 115 117 115 115 117 118 119 121 124 124
186 182 180 172 159 151 144 138 128 108 93 95 104 108 106 103 113 129 133 127 123 122 114 89 90 99 96 81 82 95 101 102 100 88 79 120 141 129 127 138 139 126 113 115 121 116 104 93 96 104 91 55 62 80 80 99 153 158 117 117 171 104 87 82 87 95 88 94 106 101 94 93 93 95 101 106 109 113 115 115 117 118 116 119 121 121 120
184 180 181 172 160 156 149 138 125 108 97 102 113 115 107 101 107 120 131 134 130 115 105 106 101 105 106 94 87 90 89 90 97 96 89 91 101 109 115 118 117 111 105 107 107 97 83 71 77 90 68 55 70 89 82 85 114 115 82 114 141 132 114 98 104 104 93 98 112 108 97 90 92 100 108 113 115 116 116 116 119 120 120 121 122 120 120
181 180 181 171 162 160 150 138 131 114 99 104 120 124 112 104 111 128 142 147 138 104 93 121 95 92 91 90 98 106 94 86 91 95 96 97 98 101 108 110 108 105 101 100 97 89 80 73 71 77 87 86 81 73 65 74 85 77 55 91 111 113 117 119 119 119 116 131 146 137 114 103 112 116 117 119 121 121 121 122 123 123 125 126 124 122 122
179 180 181 171 165 164 152 140 136 119 104 106 119 127 118 106 104 119 143 155 142 120 121 112 100 96 85 74 83 112 117 108 108 104 101 102 101 101 104 105 103 101 96 94 92 84 77 88 98 100 102 95 84 61 48 61 70 55 19 66 105 123 144 143 126 123 137 151 155 139 121 125 131 126 122 123 126 125 124 126 125 125 129 131 127 124 122
177 179 180 173 169 168 158 146 141 126 113 111 116 123 122 110 96 101 125 139 129 119 113 102 95 96 83 73 84 104 109 110 119 121 113 107 105 106 103 97 95 96 94 92 91 86 79 87 93 90 95 102 97 64 44 60 59 42 67 92 108 124 135 129 122 121 130 141 143 131 125 131 136 131 127 127 124 120 120 122 123 123 126 127 123 118 115
172 177 180 176 175 174 166 155 148 136 125 123 127 127 121 109 96 100 120 133 130 121 112 103 93 93 87 84 89 101 107 108 112 115 114 110 107 107 102 94 93 97 94 88 85 81 73 74 74 70 81 101 104 81 83 100 81 62 90 101 109 117 121 122 124 125 129 135 135 127 126 131 133 131 129 127 123 120 118 116 118 120 123 125 122 117 113
169 175 178 177 178 178 172 163 157 147 137 137 140 135 123 113 107 106 117 132 136 127 113 97 88 98 94 84 85 95 105 108 106 105 105 103 101 102 102 96 93 94 91 85 79 71 59 62 68 63 73 92 96 85 101 107 94 81 99 105 112 118 119 121 125 127 129 133 132 126 126 131 134 135 135 134 129 123 117 115 115 116 119 120 119 118 117
169 173 174 172 172 173 173 170 162 150 137 136 144 143 136 130 118 111 123 136 142 134 117 97 76 79 77 75 87 97 103 105 104 102 99 97 96 98 100 96 90 89 90 86 76 59 58 76 78 69 71 88 97 90 60 87 105 121 116 114 118 122 124 128 131 131 133 136 135 131 134 141 142 140 138 136 131 124 121 120 118 116 118 118 117 119 119
167 170 168 165 165 167 169 168 160 145 123 126 145 150 145 133 117 118 132 141 143 133 117 99 73 54 61 88 99 100 99 102 104 99 92 93 98 98 95 93 89 85 83 80 73 71 82 84 81 76 76 86 94 91 57 89 120 128 126 124 126 127 129 131 134 135 138 141 139 137 141 147 146 140 136 135 134 130 127 126 124 123 123 123 123 127 130
162 165 162 160 161 162 161 157 153 143 119 122 140 149 144 127 112 120 135 144 141 127 109 88 78 82 70 70 92 99 101 105 107 100 90 98 105 101 93 89 86 78 73 79 87 89 86 85 86 85 80 80 84 87 92 119 129 131 131 132 134 134 134 135 137 140 141 139 137 137 138 140 141 142 142 141 140 138 136 135 136 135 132 129 127 127 131
157 158 156 154 153 152 150 149 149 146 129 125 140 148 142 121 107 117 135 146 143 129 106 99 104 103 90 63 84 119 122 117 114 115 116 112 106 101 95 90 82 76 84 91 90 85 88 98 100 95 83 73 69 75 130 137 132 130 131 133 138 142 140 138 141 145 142 135 135 141 142 142 144 146 147 146 148 150 151 148 146 145 138 131 126 121 131
151 151 147 145 145 145 146 146 147 144 132 125 138 147 141 119 103 104 114 130 137 136 128 120 119 129 132 118 122 146 139 125 115 121 127 123 107 102 105 100 84 83 91 86 71 65 96 110 108 90 56 67 84 129 140 136 132 130 129 133 140 144 142 139 139 140 139 139 144 148 149 148 146 145 146 147 150 154 156 157 158 155 143 132 129 131 143
145 143 140 140 140 139 139 140 136 131 126 126 139 148 142 122 105 102 100 105 115 128 133 132 144 172 150 132 124 141 145 143 128 119 117 112 102 102 103 100 91 89 83 60 42 73 86 90 91 73 29 96 139 142 140 137 136 134 132 133 137 139 139 138 137 137 140 145 149 153 155 154 151 150 151 153 156 159 160 165 170 167 153 145 143 144 148
136 135 135 136 135 130 129 134 136 134 133 135 141 144 139 118 105 109 103 91 95 119 132 138 158 156 137 116 106 128 147 153 126 105 96 95 99 96 87 83 86 88 73 54 77 85 73 62 69 73 46 114 139 144 146 145 143 143 141 141 142 141 141 141 142 144 149 152 152 155 157 158 159 160 159 159 164 167 164 162 167 166 159 155 153 153 154
131 131 130 130 129 124 124 137 142 140 138 138 139 136 119 90 90 94 63 60 83 115 126 146 163 151 135 114 85 116 139 132 99 77 78 87 94 118 107 92 94 92 86 111 137 93 72 16 18 66 57 71 126 146 155 154 150 151 151 148 147 150 152 151 151 154 157 157 155 157 158 158 160 161 159 158 164 167 161 158 165 169 166 159 156 158 159
127 124 117 115 121 127 134 143 146 142 132 127 127 120 90 60 79 192 60 52 48 127 141 151 156 148 139 134 122 113 134 139 127 119 120 97 92 117 113 108 122 112 91 139 165 103 103 90 51 74 131 141 127 144 154 155 154 156 155 150 149 155 159 159 162 165 165 163 163 164 163 161 159 156 152 154 158 159 158 161 166 169 165 158 156 161 163
121 118 114 117 126 132 138 142 143 135 114 100 100 101 83 0 252 197 104 88 14 281 137 135 137 135 135 134 128 115 127 136 130 124 118 87 83 101 96 110 141 111 80 213 158 104 88 87 70 104 193 155 133 141 152 154 155 156 155 153 156 162 165 168 169 166 164 165 167 163 156 155 156 155 152 152 153 154 159 163 162 163 166 165 163 163 154
125 124 121 123 126 129 131 130 120 97 87 82 72 51 315 225 180 141 108 158 205 225 103 123 132 129 123 120 116 113 122 128 124 119 111 81 108 111 99 90 106 80 123 164 136 90 64 108 115 215 192 151 135 139 148 150 151 153 151 148 152 158 163 165 161 152 146 148 152 150 147 148 151 152 152 153 153 154 157 158 156 158 162 163 163 160 149
130 124 120 120 123 124 121 91 55 58 65 61 63 78 338 355 31 135 270 240 161 106 103 119 128 126 119 113 110 110 114 117 111 100 98 119 136 104 71 49 60 111 149 145 117 82 128 150 166 203 182 155 140 139 143 143 145 148 148 147 147 146 147 151 152 149 145 143 144 147 150 150 147 146 149 154 157 155 154 155 157 158 157 154 154 154 148
129 121 117 116 114 113 105 28 26 60 66 56 121 139 148 172 191 167 155 165 138 123 132 141 140 133 121 107 103 101 103 107 93 76 89 121 101 68 76 122 194 146 141 130 92 110 182 197 187 180 171 158 147 146 146 145 146 148 149 150 152 151 149 149 148 147 147 145 144 145 149 152 153 153 155 158 158 155 152 152 154 155 158 160 161 159 154
128 116 109 90 41 68 96 323 331 35 146 209 189 158 154 175 191 185 165 160 148 136 140 147 143 130 113 103 102 95 91 96 87 72 126 116 60 43 137 178 151 106 119 117 115 143 193 257 176 169 168 163 156 153 152 150 151 153 149 145 149 154 152 148 147 147 148 147 146 147 151 156 158 158 156 157 159 159 155 153 154 158 161 163 163 162 160
127 111 101 85 0 331 83 90 90 180 196 197 189 176 174 184 189 178 160 158 149 140 141 143 138 124 108 96 97 92 89 95 91 48 83 96 77 307 178 132 93 80 92 112 157 179 223 218 174 166 167 165 163 163 161 156 155 157 154 148 147 150 149 147 148 150 150 150 152 157 161 163 162 159 156 156 159 162 162 162 167 172 172 169 171 172 166
131 120 97 80 0 291 270 189 219 232 220 203 205 205 196 190 185 171 165 166 157 145 139 137 132 125 116 105 103 102 85 86 79 0 23 85 117 266 42 79 111 173 151 171 202 227 233 187 170 166 165 165 166 170 171 165 160 163 165 161 156 154 152 152 152 152 152 154 157 155 153 156 160 161 159 157 158 162 166 170 178 182 177 168 164 168 170
142 142 127 103 153 191 211 231 248 254 247 236 231 220 207 205 216 214 188 172 157 145 139 133 125 117 104 92 102 103 49 66 78 0 13 87 108 0 33 59 257 247 167 176 206 219 182 170 167 166 166 167 167 170 172 169 163 160 163 165 164 162 162 161 158 156 156 158 158 152 148 151 157 160 160 163 168 170 162 149 147 172 182 174 160 148 154
149 152 190 242 227 228 238 249 278 286 276 263 246 232 227 231 234 218 188 167 154 146 142 136 126 120 107 82 92 77 34 62 101 27 30 68 97 162 127 140 233 244 219 214 215 179 169 167 166 165 166 168 167 168 171 171 166 158 156 157 157 157 159 160 159 159 161 164 166 166 165 167 171 173 176 179 179 173 159 138 115 118 165 182 183 175 166
153 193 243 253 250 258 273 277 270 290 294 269 222 213 212 204 190 174 164 157 150 143 136 128 119 113 98 73 73 50 318 202 126 92 74 110 177 159 140 173 222 221 222 221 186 168 165 165 164 164 166 167 167 167 170 171 169 165 163 163 161 159 159 159 160 162 163 165 167 169 168 167 169 172 171 170 169 163 157 156 150 136 142 167 189 195 187
200 260 258 250 249 273 297 302 265 268 323 111 145 158 151 141 140 147 153 152 148 140 130 122 114 89 64 62 95 130 180 148 109 106 161 214 178 133 150 212 224 215 207 187 170 165 165 165 165 165 166 167 167 166 167 169 169 167 166 166 166 164 162 162 163 164 159 157 162 167 164 157 154 151 147 154 171 181 181 178 175 171 169 174 191 199 198
246 271 291 288 276 277 288 287 272 266 199 121 132 137 132 129 136 150 156 154 149 138 124 117 106 86 81 150 159 133 112 105 107 137 203 218 185 164 188 212 210 195 178 167 163 164 166 167 167 167 168 168 167 166 167 168 168 166 164 164 164 164 165 167 168 166 161 160 168 173 169 160 159 164 164 170 183 190 184 171 168 177 192 206 205 197 194